AD8IZ-13 Weather Reports


Display with metric or nautical units.
time (UTC)temp
F
wind
direction
speed
MPH
gust
MPH
rain 1hr
in
rain 24hr
in
rain mn
in
humidity
%
barometer
mb
20260506214518 56 323 2.0 6.0 0.00 0.69 0.25 56 1012.3
20260506213520 56 301 2.0 5.0 0.00 0.69 0.25 58 1012.2
20260506212518 57 308 2.0 7.0 0.00 0.69 0.25 57 1012.1
20260506211520 57 280 1.0 6.0 0.00 0.69 0.25 57 1012.0
20260506210520 57 304 1.0 4.0 0.00 0.69 0.25 57 1012.0
20260506205518 57 306 1.0 4.0 0.00 0.69 0.25 56 1011.9
20260506204519 57 319 2.0 4.0 0.00 0.69 0.25 57 1011.9
20260506203519 58 301 3.0 7.0 0.00 0.69 0.25 56 1011.8
20260506202521 59 322 2.0 6.0 0.00 0.69 0.25 57 1011.7
20260506201518 59 331 2.0 5.0 0.00 0.69 0.25 57 1011.6
20260506200519 60 338 2.0 5.0 0.00 0.69 0.25 56 1011.6
20260506195518 61 328 3.0 6.0 0.00 0.69 0.25 55 1011.5
20260506194522 60 333 3.0 7.0 0.00 0.69 0.25 55 1011.6
20260506193519 60 331 2.0 7.0 0.00 0.69 0.25 56 1011.4
20260506192519 61 345 2.0 5.0 0.00 0.69 0.25 54 1011.3
20260506191521 61 340 2.0 6.0 0.00 0.69 0.25 56 1011.4
20260506190522 60 341 2.0 4.0 0.00 0.69 0.25 56 1011.6
20260506185521 59 335 2.0 4.0 0.00 0.69 0.25 56 1011.5
20260506184518 59 345 2.0 5.0 0.00 0.69 0.25 57 1011.7
20260506183520 58 321 3.0 8.0 0.00 0.69 0.25 57 1011.7
20260506182520 58 329 2.0 6.0 0.00 0.69 0.25 57 1011.8
20260506181520 58 318 3.0 6.0 0.00 0.69 0.25 56 1011.8
20260506180518 58 328 2.0 5.0 0.00 0.69 0.25 58 1011.8
20260506175517 59 313 3.0 8.0 0.00 0.69 0.25 56 1011.9
20260506174518 59 330 2.0 5.0 0.00 0.69 0.25 57 1012.0
20260506173524 59 322 2.0 5.0 0.00 0.69 0.25 57 1011.9
20260506172519 59 322 3.0 6.0 0.00 0.69 0.25 58 1011.9
20260506171518 58 321 2.0 7.0 0.00 0.69 0.25 58 1011.9
20260506170519 58 327 2.0 5.0 0.00 0.69 0.25 59 1011.8
20260506165518 58 310 3.0 7.0 0.00 0.69 0.25 58 1011.9
20260506164519 57 303 1.0 4.0 0.00 0.69 0.25 61 1012.3
20260506163519 57 316 3.0 7.0 0.00 0.69 0.25 61 1012.3
20260506162519 57 305 2.0 7.0 0.00 0.69 0.25 61 1012.0
20260506161520 56 300 2.0 4.0 0.00 0.69 0.25 65 1012.1
20260506160519 56 319 2.0 5.0 0.00 0.69 0.25 68 1012.0
20260506155520 55 341 2.0 6.0 0.00 0.69 0.25 68 1011.9
20260506154517 54 326 2.0 5.0 0.00 0.69 0.25 72 1012.0
20260506153520 54 345 2.0 4.0 0.00 0.69 0.25 72 1011.9
20260506152520 53 351 2.0 4.0 0.00 0.69 0.25 75 1011.8
20260506151522 52 357 2.0 4.0 0.00 0.69 0.25 77 1011.7
20260506150518 52 330 2.0 6.0 0.00 0.69 0.25 78 1011.7
20260506145518 51 340 2.0 5.0 0.00 0.69 0.25 79 1011.7
20260506144518 51 350 2.0 3.0 0.00 0.69 0.25 79 1011.7
20260506143522 50 321 1.0 5.0 0.00 0.69 0.25 81 1011.7
20260506142518 49 292 1.0 4.0 0.00 0.69 0.25 82 1011.5
20260506141519 49 310 3.0 8.0 0.00 0.69 0.25 85 1011.3
20260506140519 49 324 3.0 7.0 0.00 0.69 0.25 89 1011.2
20260506135522 49 337 2.0 3.0 0.00 0.69 0.25 90 1011.2
20260506134523 49 312 2.0 4.0 0.00 0.69 0.25 91 1011.0
20260506133522 49 321 2.0 5.0 0.00 0.69 0.25 92 1010.9
20260506132522 48 331 1.0 3.0 0.00 0.69 0.25 94 1010.9
20260506131523 48 323 1.0 3.0 0.00 0.69 0.25 95 1010.9
20260506130523 47 329 2.0 3.0 0.00 0.69 0.25 96 1010.8
20260506125523 48 307 2.0 3.0 0.00 0.69 0.25 97 1010.8
20260506124524 48 312 2.0 4.0 0.00 0.69 0.25 98 1010.7
20260506123524 48 307 0.0 1.0 0.00 0.69 0.25 98 1010.1
20260506122524 47 146 0.0 1.0 0.00 0.69 0.25 98 1009.9
20260506121526 47 347 0.0 2.0 0.00 0.69 0.25 98 1010.2
20260506120525 47 311 1.0 5.0 0.00 0.70 0.25 98 1010.1
20260506115524 47 305 0.0 2.0 0.00 0.70 0.25 98 1010.1
20260506114524 46 288 0.0 1.0 0.00 0.70 0.25 98 1010.2
20260506113524 46 326 0.0 1.0 0.00 0.70 0.25 98 1009.7
20260506112525 47 265 0.0 1.0 0.00 0.70 0.25 98 1009.4
20260506111526 46 233 1.0 4.0 0.00 0.70 0.25 98 1009.0
20260506110525 47 243 0.0 2.0 0.00 0.70 0.25 98 1008.7
20260506105525 47 288 1.0 4.0 0.00 0.70 0.25 98 1009.2
20260506104526 47 294 1.0 3.0 0.00 0.70 0.25 98 1009.2
20260506103526 47 320 1.0 2.0 0.00 0.70 0.25 98 1009.0
20260506102525 47 342 1.0 2.0 0.00 0.70 0.25 98 1008.6
20260506101526 47 311 0.0 2.0 0.00 0.70 0.25 98 1008.3
20260506100526 47 290 0.0 3.0 0.00 0.70 0.25 98 1007.9
20260506095526 47 354 1.0 3.0 0.02 0.70 0.25 98 1007.8
20260506094526 47 302 1.0 4.0 0.03 0.70 0.25 98 1008.0
20260506093526 47 314 1.0 3.0 0.04 0.69 0.25 98 1008.0
20260506092518 47 306 2.0 5.0 0.06 0.69 0.25 98 1008.2
20260506091519 47 289 1.0 5.0 0.09 0.69 0.25 98 1007.9
20260506090527 47 282 1.0 3.0 0.12 0.69 0.25 98 1007.7
20260506085524 47 313 2.0 5.0 0.11 0.68 0.23 98 1008.2
20260506084525 47 298 2.0 6.0 0.10 0.66 0.22 98 1008.2
20260506083518 48 296 2.0 5.0 0.09 0.65 0.21 98 1007.8
20260506082527 48 312 1.0 5.0 0.07 0.63 0.18 98 1007.8
20260506081529 48 298 1.0 4.0 0.05 0.61 0.16 98 1007.7
20260506080520 48 311 2.0 5.0 0.02 0.57 0.12 98 1007.5
20260506073519 49 300 2.0 7.0 0.05 0.56 0.11 98 1007.1
20260506072520 49 315 3.0 7.0 0.05 0.56 0.11 98 1007.0
20260506071520 49 314 2.0 5.0 0.06 0.55 0.10 98 1007.0
20260506070520 50 321 3.0 6.0 0.07 0.55 0.10 98 1007.1
20260506061518 51 265 0.0 2.0 0.04 0.49 0.04 98 1007.0
20260506060518 51 293 1.0 3.0 0.03 0.48 0.03 98 1007.1
20260506050519 52 312 0.0 3.0 0.00 0.45 0.00 98 1007.5
20260506044520 53 323 1.0 3.0 0.01 0.45 0.00 98 1007.5
20260506043521 54 333 0.0 3.0 0.03 0.45 0.00 98 1007.7
20260506042520 55 329 1.0 3.0 0.06 0.45 0.00 98 1007.6
20260506041519 57 319 2.0 4.0 0.08 0.45 0.00 98 1007.6
20260506040519 58 203 0.0 2.0 0.11 0.45 0.00 98 1007.5
20260506035521 58 176 1.0 3.0 0.12 0.45 0.45 98 1007.6
20260506034521 58 180 0.0 3.0 0.11 0.44 0.44 98 1007.9
20260506033518 58 200 1.0 3.0 0.11 0.41 0.41 98 1008.0
20260506032517 58 193 0.0 2.0 0.11 0.39 0.39 98 1008.1
20260506031521 59 189 0.0 3.0 0.10 0.37 0.37 98 1008.1
20260506030519 59 172 0.0 3.0 0.10 0.34 0.34 98 1008.1
20260506025518 59 192 0.0 3.0 0.11 0.33 0.33 98 1008.1
20260506024519 59 179 1.0 4.0 0.12 0.32 0.32 98 1008.0
20260506023519 59 161 0.0 5.0 0.13 0.30 0.30 98 1008.2
20260506022517 59 196 0.0 3.0 0.11 0.28 0.28 98 1008.2
20260506021521 59 178 0.0 3.0 0.10 0.27 0.27 98 1008.2
20260506020519 59 209 0.0 2.0 0.08 0.25 0.25 98 1008.2
20260506015519 59 269 0.0 1.0 0.05 0.22 0.22 98 1008.0
20260506014517 59 200 0.0 2.0 0.05 0.20 0.20 98 1008.0
20260506013519 59 0.0 0.0 0.04 0.18 0.18 98 1007.9
20260506012521 59 0.0 0.0 0.03 0.17 0.17 98 1007.8
20260506011521 59 0.0 0.0 0.03 0.17 0.17 98 1007.5
20260506010519 60 0.0 0.0 0.03 0.16 0.16 98 1007.6
20260506005519 60 161 0.0 2.0 0.03 0.16 0.16 98 1007.7
20260506004518 60 190 0.0 3.0 0.02 0.15 0.15 98 1007.8
20260506003518 60 18 0.0 1.0 0.01 0.14 0.14 98 1007.9
20260506002518 60 250 0.0 0.0 0.00 0.14 0.14 98 1007.7
20260506001519 60 175 0.0 3.0 0.00 0.14 0.14 98 1007.7
20260506000518 60 195 0.0 2.0 0.00 0.14 0.14 98 1007.7
20260505235519 60 0.0 0.0 0.00 0.14 0.14 97 1007.7
20260505234519 60 212 0.0 2.0 0.01 0.14 0.14 97 1007.7
20260505233519 60 0.0 0.0 0.01 0.14 0.14 97 1007.8
20260505232519 60 2 0.0 3.0 0.04 0.14 0.14 97 1008.0
20260505231521 60 174 0.0 1.0 0.05 0.14 0.14 97 1008.1
20260505230520 60 151 0.0 1.0 0.06 0.14 0.14 96 1008.1
20260505225520 60 131 0.0 2.0 0.07 0.13 0.13 96 1008.1
20260505224520 60 208 1.0 4.0 0.12 0.13 0.13 96 1008.2
20260505223517 60 267 1.0 4.0 0.11 0.12 0.12 95 1008.2
20260505222521 61 309 1.0 4.0 0.09 0.10 0.10 95 1008.2
20260505221522 61 332 2.0 5.0 0.08 0.08 0.08 93 1008.0
20260505220521 63 328 2.0 5.0 0.07 0.08 0.08 90 1008.0
20260505215518 68 337 3.0 7.0 0.06 0.07 0.07 80 1007.7